LiveATC.Net - Listen to live air traffic control over the Internet!


ICAO: ESMQ  IATA: KLR   Airport: Kalmar Airport
City: Kalmar
Country: Sweden   Continent: Europe
ESMQ METAR Weather: ESMQ 171920Z AUTO 03010KT 6000 FEW006/// BKN007/// OVC010/// 13/12 Q1015
ESMQ Flight Activity (FlightAware)

ESMQ Tower
Feed Status: UP   Listeners: 1
Listen in your browser - HTML5 player (in browser, HTML5)
Click here to listen with your own player (launches your MP3 player)
Archive Access: ESMQ Tower
FacilityFrequency
Kalmar Tower130.805

NOTICE

Unauthorized use prohibited. See LiveATC.net Terms of Service


Airport/ARTCC Code
Frequency Search
(e.g., 124.400, 128.75)
Site-wide search
 


Browse Feeds
Top 50 Feeds
HF Oceanic Feeds
Coverage Map
Bad Weather Areas

LiveATC FAQ
Offer LiveATC feed
Contact LiveATC.net
Press Inquiries

LiveATC on iPhone
LiveATC on Android

Windows Phone
Windows 8/10

LiveATC Mobile
(Mobile browser)

ATC Audio Archives
Interesting Recordings

LiveATC Forums


Home Page
About LiveATC.net
Make a Donation
Terms of Use
Privacy Policy

Canadian Air Freqs

AIRMETs/SIGMETs

FAA Airport Status
NAS Status
Arrival Demand


Server Software By:
Icecast.org
Liquidsoap